Flag for France Weather past 2 weeks in Strasbourg, France

45 °F


Feels Like: 40 °F
Forecast: 40 / 49 °F
Wind: 8 mph from Northeast

Location: Strasbourg Airport

Current Time: Oct 13, 2015 at 11:10:37 AM

Latest Report: Oct 13, 2015 at 11:00 AM

Visibility: N/A

Pressure: 29.95 "Hg

Humidity: 76%

Dew point: 37 °F

Location of StrasbourgLocation

Historic Weather in Strasbourg — Graph


Strasbourg temperature yesterday

Maximum temperature yesterday: 57 °F (at 3:30 PM)
Minimum temperature yesterday: 37 °F (at 7:00 AM)
Average temperature yesterday: 47 °F

Past Weeks' High & Low Weather Summary

High72 °F (Oct 3, 3:00 PM)100% (Oct 5, 4:30 AM)30.51 "Hg (Oct 5, 4:30 AM)
Low36 °F (Oct 13, 5:00 AM)34% (Sep 28, 4:30 PM)29.68 "Hg (Oct 6, 8:30 AM)
Average55 °F72%30.08 "Hg
* Reported Sep 28 10:00 AM — Oct 13 10:00 AM, Strasbourg, Weather by CustomWeather, © 2015

Note: Actual official high and low records may vary slightly from our data, if they occured in-between our weather recording intervals... More about our weather records


Strasbourg weather history for previous 24 hours

Time TempWeatherWind HumidityBarometerVisibility
10:00 AM
Tue, Oct 13
41 °FOvercast.5 mph87%29.95 "HgN/A
9:30 AM41 °FOvercast.5 mph81%29.95 "HgN/A
9:00 AM41 °FOvercast.5 mph81%29.95 "HgN/A
8:30 AM39 °FOvercast.2 mph87%29.95 "HgN/A
8:00 AM37 °FPassing clouds.2 mph87%29.95 "Hg4 mi
7:30 AM37 °FClear.No wind87%29.95 "Hg6 mi
7:00 AM36 °FClear.1 mph93%29.95 "Hg5 mi
6:30 AM36 °FClear.2 mph93%29.95 "Hg10 mi
6:00 AM37 °FClear.2 mph93%29.95 "Hg6 mi
5:30 AM37 °FClear.2 mph93%29.95 "Hg5 mi
5:00 AM36 °FClear.2 mph93%29.95 "Hg10 mi
4:30 AM37 °FClear.1 mph93%29.95 "Hg6 mi
4:00 AM37 °FClear.1 mph93%29.95 "Hg10 mi
3:30 AM39 °FClear.1 mph87%29.95 "Hg10 mi
3:00 AM39 °FClear.2 mph87%29.95 "Hg10 mi
2:30 AM39 °FClear.2 mph87%29.95 "Hg10 mi
2:00 AM41 °FClear.2 mph87%29.95 "Hg10 mi
1:30 AM43 °FClear.2 mph81%29.95 "Hg10 mi
1:00 AM43 °FPartly cloudy.3 mph81%29.95 "HgN/A
12:30 AM45 °FPartly cloudy.3 mph76%29.95 "HgN/A
12:00 AM45 °FClear.6 mph81%29.98 "Hg10 mi
11:30 PM
Mon, Oct 12
43 °FClear.5 mph81%29.98 "Hg10 mi
11:00 PM45 °FClear.5 mph76%29.98 "Hg10 mi
10:30 PM45 °FClear.5 mph76%29.98 "Hg10 mi
10:00 PM46 °FClear.3 mph71%29.98 "Hg10 mi
9:30 PM46 °FClear.6 mph76%29.98 "Hg10 mi
9:00 PM46 °FClear.7 mph76%29.98 "Hg10 mi
8:30 PM46 °FClear.6 mph76%29.98 "Hg10 mi
8:00 PM48 °FClear.5 mph71%29.98 "Hg10 mi
7:30 PM48 °FSunny.7 mph71%29.98 "Hg10 mi
7:00 PM50 °FSunny.5 mph67%29.98 "Hg10 mi
6:30 PM54 °FPartly sunny.5 mph58%29.98 "HgN/A
6:00 PM54 °FSunny.9 mph58%29.98 "Hg10 mi
5:30 PM55 °FSunny.9 mph55%29.98 "Hg10 mi
5:00 PM55 °FSunny.8 mph55%29.98 "Hg10 mi
4:30 PM55 °FSunny.9 mph55%29.98 "Hg10 mi
4:00 PM57 °FPassing clouds.8 mph51%29.95 "HgN/A
3:30 PM57 °FPassing clouds.8 mph51%29.98 "HgN/A
3:00 PM55 °FSunny.7 mph55%29.98 "Hg10 mi
2:30 PM55 °FPassing clouds.8 mph51%29.98 "HgN/A
2:00 PM54 °FPassing clouds.6 mph58%29.98 "HgN/A
1:30 PM54 °FPassing clouds.6 mph58%30.01 "HgN/A
1:00 PM52 °FPassing clouds.7 mph58%30.01 "HgN/A
12:30 PM50 °FPassing clouds.7 mph62%30.01 "HgN/A
12:00 PM50 °FPassing clouds.7 mph62%30.01 "HgN/A
11:30 AM48 °FPassing clouds.6 mph66%30.01 "HgN/A
11:00 AM46 °FPassing clouds.7 mph66%30.01 "HgN/A
Weather by CustomWeather, © 2015

See weather overviewHow to use our weather pages